Theta_e
313 313 317 320 323 322 325 330 334 333 328 323 322 326 324 324 330 328 328 327 330 327 325 332 337 336 334 340 342 340 339 341 342 342 344 339 337 339 337 337 336 336 337 334 329 331 334 333 333 335 335 334 337 338 338 339 339 339 338 338 337 334 335 336 335 335 333 331 331 332 332 332 332 331 332 332 331 331 331 331 331 331 332 332 332 332 332 332 331 331 332 332 331 330 332 332 332
313 315 319 320 324 320 326 336 335 333 331 323 319 325 322 322 327 329 330 328 331 328 330 337 339 339 337 339 340 339 339 338 337 337 338 336 338 339 336 336 335 336 336 331 328 329 332 332 334 335 334 336 337 338 339 339 339 339 338 338 336 333 333 335 335 334 333 332 332 332 331 330 331 332 332 331 331 331 331 331 331 331 331 331 331 331 331 331 330 331 331 331 330 330 331 332 332
313 317 320 321 323 322 331 334 332 330 326 325 327 328 323 323 330 331 328 328 331 331 333 335 338 336 338 344 341 340 339 336 336 337 337 338 339 337 337 336 335 336 333 327 323 326 329 332 336 335 334 337 338 338 339 338 339 338 338 338 336 332 332 334 334 333 332 331 332 332 331 330 331 332 332 330 331 331 331 331 331 331 331 331 331 331 330 330 330 331 332 331 331 331 331 331 331
314 320 320 320 325 330 336 331 336 334 323 327 328 325 328 329 330 328 326 328 329 329 328 330 339 334 338 348 341 340 340 337 337 337 338 338 338 338 337 335 336 335 330 323 320 325 329 334 337 335 334 337 338 338 338 338 338 338 337 336 333 331 331 332 333 331 331 331 332 332 332 332 331 330 330 330 331 330 331 331 331 331 331 331 330 330 330 330 330 331 331 331 331 331 331 330 329
316 322 319 320 327 331 331 325 332 330 322 329 325 325 334 332 330 328 325 326 324 324 325 333 342 334 336 341 338 342 340 338 337 336 338 338 338 337 336 335 336 333 325 320 322 327 331 334 336 335 335 336 337 337 338 337 338 338 336 334 332 332 330 330 331 331 332 332 331 331 332 331 331 330 330 330 330 330 330 330 330 330 330 330 330 331 331 330 331 331 330 330 331 330 330 329 329
318 321 320 319 319 324 327 323 326 326 327 332 329 330 332 329 330 330 325 323 322 325 329 338 343 338 340 338 336 340 337 337 337 336 338 337 338 337 336 335 335 329 320 319 323 328 331 333 334 335 334 335 336 336 337 337 337 336 334 333 333 333 330 328 331 332 333 331 330 331 331 331 330 330 331 330 330 330 330 330 330 330 330 330 330 330 330 330 330 331 330 331 330 330 330 329 329
319 320 323 323 320 325 331 325 329 333 325 326 333 332 328 329 329 327 325 323 324 330 337 339 340 344 342 337 335 336 335 336 337 337 338 337 337 337 336 336 335 325 318 320 322 328 332 332 333 334 334 334 335 335 336 336 336 334 332 332 332 331 329 329 331 331 332 331 330 332 331 330 329 329 330 329 330 330 330 331 330 330 330 330 329 329 329 329 330 331 330 330 329 329 329 329 329
320 322 327 330 326 329 332 324 330 333 318 319 329 328 327 329 326 326 326 325 325 332 337 331 335 345 339 337 341 337 334 335 337 337 337 338 337 337 336 336 332 322 318 319 322 328 331 332 333 333 334 334 334 335 335 335 336 334 332 332 331 329 329 330 331 331 331 331 331 332 331 330 329 328 328 328 329 329 330 330 330 330 330 329 328 329 329 329 330 330 330 329 328 327 328 329 328
319 321 326 328 324 329 336 327 323 323 319 321 325 324 325 324 324 324 325 325 325 329 330 325 331 340 338 341 344 336 335 337 337 337 337 338 337 336 336 336 328 319 318 318 322 326 329 332 333 332 333 333 333 334 335 334 335 334 333 333 333 330 328 330 331 330 330 331 331 330 330 329 329 328 327 328 328 329 329 329 329 329 329 329 328 328 329 329 330 330 329 328 328 327 327 328 327
321 320 325 329 326 323 327 330 326 320 319 323 323 325 325 322 321 320 324 325 324 325 325 330 337 339 339 342 341 335 336 338 337 338 337 337 337 336 336 335 326 319 318 317 319 322 327 330 330 331 331 331 331 331 333 335 334 335 334 333 333 330 327 329 330 329 329 330 329 329 330 329 329 328 327 328 329 329 329 328 328 328 328 328 327 327 328 328 329 329 328 326 326 327 327 327 327
328 327 332 333 328 321 322 332 333 325 320 321 321 323 323 320 320 319 323 323 324 329 327 335 343 340 340 340 339 336 335 338 337 338 338 337 337 335 336 334 324 319 319 317 316 318 321 325 327 328 328 330 330 329 331 334 334 334 334 331 331 329 327 329 329 329 329 329 328 330 331 330 330 328 328 328 329 329 328 329 329 328 328 327 326 326 327 327 328 329 328 325 325 327 326 326 326
326 331 342 337 326 324 328 331 327 326 321 321 322 321 320 317 319 322 323 322 327 335 331 334 341 342 343 341 338 335 336 339 337 338 338 337 336 335 337 334 324 320 320 317 316 315 317 321 324 326 328 331 332 330 329 331 334 334 333 331 329 327 327 329 329 329 329 328 329 329 330 330 330 329 327 328 329 329 329 328 328 327 327 327 326 326 326 327 328 328 327 325 325 326 326 325 325
329 334 339 329 326 327 327 325 323 325 322 323 323 319 318 317 320 323 324 323 326 334 329 328 338 345 345 340 338 334 336 338 337 338 338 338 337 336 337 333 324 320 320 318 317 315 316 320 322 325 330 332 332 331 329 330 332 333 332 329 327 325 326 330 329 329 329 328 329 329 328 329 329 328 326 326 327 327 327 327 327 327 326 326 326 326 326 326 326 325 324 324 325 326 326 325 324
329 338 337 323 324 328 327 324 321 323 324 325 322 318 317 318 320 321 323 324 322 325 323 326 336 346 342 337 338 335 336 338 338 339 338 339 337 337 338 334 325 320 321 320 319 316 315 319 321 325 329 331 330 329 329 328 329 331 330 326 324 323 325 328 327 327 328 327 328 328 328 328 328 327 325 325 325 325 324 325 326 327 327 327 326 326 325 325 323 322 323 323 324 325 325 324 324
322 339 341 327 324 324 325 323 321 324 325 324 318 318 318 315 318 319 321 324 321 318 321 326 331 335 338 341 343 336 336 338 339 339 339 339 338 339 338 335 327 322 322 321 320 318 316 317 319 322 326 327 325 324 325 327 327 328 327 324 324 323 323 324 323 325 326 325 326 327 327 327 327 326 326 324 323 324 323 322 323 323 326 326 325 325 324 323 322 321 322 322 323 324 324 324 324
326 340 336 326 325 323 323 320 321 324 325 324 317 318 319 314 316 318 317 319 320 323 332 331 325 327 334 343 342 334 336 338 339 339 339 339 339 339 339 335 328 323 322 322 322 320 318 317 317 319 321 322 321 320 320 323 326 327 326 325 325 323 322 322 322 323 324 324 325 326 325 325 325 325 326 324 322 323 323 323 321 321 324 325 323 322 321 320 320 321 321 321 321 321 321 322 323
324 336 332 325 327 326 326 321 319 324 326 324 318 317 319 316 315 316 317 322 327 332 342 336 327 330 333 335 333 333 337 337 338 339 339 339 338 338 338 334 328 324 323 323 323 322 320 318 318 318 318 318 319 320 318 319 321 323 325 324 324 322 321 320 321 322 322 323 323 323 323 322 322 323 324 323 323 323 323 322 321 319 320 322 321 319 318 318 318 318 318 318 318 317 317 318 320
323 330 328 326 331 330 330 325 320 323 324 321 319 319 320 318 316 316 321 331 333 335 342 337 333 332 330 329 330 335 336 335 338 339 338 337 337 337 336 334 330 327 325 324 324 323 323 321 320 318 318 318 317 318 318 318 318 318 319 320 322 321 320 319 318 320 321 322 322 322 322 321 320 320 320 321 322 322 321 321 320 318 317 318 317 317 317 317 317 317 317 317 317 317 318 319 320
329 330 324 330 338 333 329 326 321 320 320 319 319 320 318 319 319 317 322 331 330 335 341 338 342 339 332 332 332 335 334 335 338 337 339 337 337 337 335 335 332 329 327 326 326 325 324 323 322 321 320 319 318 318 317 317 318 318 317 316 317 319 321 319 316 316 317 319 320 320 320 319 318 318 318 319 319 318 319 320 319 317 316 316 316 317 317 317 317 317 317 317 318 318 320 321 321
327 324 322 337 338 330 326 323 320 318 319 320 319 318 317 318 318 316 323 329 327 333 342 341 347 345 337 334 331 333 333 335 337 337 338 337 337 337 336 335 333 332 331 330 329 328 327 325 324 323 322 321 320 319 317 317 318 319 318 316 316 316 319 319 316 314 315 318 319 318 317 318 319 318 316 316 316 316 317 318 318 317 316 315 315 316 317 317 317 317 317 318 319 320 320 321 321
320 319 326 337 327 322 322 319 319 319 318 318 318 318 317 316 315 316 323 327 324 326 333 339 349 346 336 334 331 331 333 334 336 336 337 337 338 337 336 336 334 334 333 332 331 331 330 328 327 325 323 323 322 321 320 318 318 318 318 318 317 316 316 317 316 316 320 321 321 320 320 322 323 322 319 317 315 313 314 316 317 316 316 316 316 315 316 317 317 317 318 320 321 321 321 321 321
317 320 327 329 319 316 319 318 318 318 317 317 318 318 317 315 313 319 324 323 323 323 325 333 341 339 333 333 332 331 331 333 335 336 337 337 337 337 337 336 335 335 334 334 333 333 333 331 331 328 326 324 324 323 322 321 320 319 319 318 318 317 316 316 314 317 324 325 324 324 324 325 324 324 323 321 318 312 311 314 315 315 314 315 316 316 316 316 316 317 318 321 321 321 321 321 321
316 319 323 324 318 315 318 317 315 317 318 318 318 318 316 315 314 318 321 320 321 319 320 331 334 331 333 333 332 332 331 331 333 335 336 336 337 337 337 336 336 335 335 335 335 335 334 333 333 331 329 327 326 326 325 324 323 322 321 320 319 319 318 317 314 316 325 327 326 326 325 325 325 325 324 323 321 315 311 312 313 313 313 313 314 316 316 315 316 316 317 319 319 319 320 321 321
314 318 321 321 317 315 317 315 315 315 317 317 316 316 316 318 317 315 317 320 319 314 314 325 330 329 332 332 332 332 331 331 332 334 335 336 336 336 336 336 336 335 335 335 336 336 335 335 334 333 332 331 330 329 328 327 326 324 324 323 322 322 320 319 316 316 324 327 327 327 326 326 326 326 324 323 322 318 314 313 313 312 311 313 314 315 316 316 316 316 317 317 317 318 319 319 320
315 318 319 317 317 318 317 315 316 315 314 316 315 317 317 316 314 314 317 317 317 317 319 326 330 330 332 333 333 331 330 331 331 333 334 335 335 335 335 335 335 335 335 336 336 335 336 336 336 335 334 333 332 332 332 332 330 328 326 326 325 324 323 322 319 317 321 326 327 327 327 326 326 326 326 324 323 321 318 318 318 316 314 315 316 316 317 318 318 319 319 319 319 319 319 318 318
313 313 314 314 316 318 316 314 316 316 314 314 316 316 314 312 311 315 317 316 320 325 329 332 330 332 333 333 332 330 330 331 330 332 332 333 334 334 335 335 335 335 336 336 336 335 336 337 337 336 335 335 334 333 334 334 334 332 330 329 328 327 326 324 322 320 320 324 326 327 326 326 326 326 326 325 323 323 322 322 322 321 320 319 319 318 318 319 320 321 321 321 321 320 319 318 318
310 310 311 312 315 316 316 315 314 316 315 314 316 316 315 313 312 317 316 318 328 333 333 332 332 334 333 333 332 330 330 330 331 331 331 332 332 333 334 334 335 335 336 337 337 336 336 337 337 337 337 336 335 334 334 334 335 334 333 331 330 329 328 327 325 324 323 323 325 325 325 325 326 326 326 325 323 323 325 324 324 324 323 322 322 321 321 321 320 320 320 321 321 320 319 318 318
310 310 311 314 316 314 315 315 314 315 314 314 316 315 315 313 314 319 317 319 331 339 335 331 333 334 332 333 332 329 330 330 331 331 331 331 331 332 333 334 334 335 336 336 337 337 337 337 338 338 337 337 336 336 335 335 335 335 334 333 331 330 330 329 327 328 326 325 326 326 327 327 328 328 327 326 324 324 325 326 326 325 325 324 324 324 323 323 322 322 321 321 321 321 320 320 319
310 309 312 316 316 315 316 315 315 315 313 315 316 315 315 314 316 317 314 320 332 337 335 332 332 333 332 332 331 330 329 329 331 330 331 331 332 332 332 333 334 335 335 335 335 336 337 337 337 338 338 338 337 336 336 335 335 335 335 333 332 331 331 331 330 329 329 328 328 328 329 329 329 329 328 327 326 326 326 326 327 326 326 325 325 324 325 325 324 323 322 322 322 322 322 322 321
311 310 312 316 315 317 317 313 315 315 313 316 314 315 318 316 317 313 312 323 334 335 335 332 331 332 331 331 331 331 329 328 329 329 331 331 332 332 332 333 333 334 334 334 334 334 336 336 336 338 337 338 337 337 337 335 335 335 336 335 333 332 332 332 331 330 330 330 329 329 329 329 329 329 329 328 327 327 327 327 327 326 327 326 325 325 325 325 325 325 324 323 323 323 323 323 323
311 310 313 316 317 322 320 313 315 314 313 315 313 314 320 318 317 313 312 322 332 336 336 330 331 331 330 331 330 331 329 328 329 329 331 331 331 332 332 333 333 334 334 333 333 333 334 336 336 337 337 338 338 338 337 336 336 335 336 335 334 333 332 333 332 332 331 330 330 329 329 329 329 329 329 329 328 328 327 327 327 327 326 326 326 326 325 325 325 325 325 324 324 323 324 324 324
313 312 318 318 315 324 324 315 315 315 313 313 312 315 319 318 317 313 311 319 327 330 333 329 330 330 329 330 329 330 329 327 328 329 330 330 331 332 331 332 332 333 333 333 333 332 333 334 336 336 336 337 337 337 337 337 337 336 336 336 335 334 333 333 332 332 331 331 330 330 329 329 329 329 329 329 329 328 328 327 327 327 327 326 326 326 326 326 326 325 325 324 324 324 324 324 324
316 314 322 323 316 319 320 315 315 315 314 312 313 316 319 317 315 312 309 316 323 324 328 328 328 328 328 329 328 329 328 327 327 327 329 330 330 331 331 331 331 332 333 333 333 333 333 333 334 335 336 337 337 337 337 337 337 336 336 336 335 335 334 334 333 332 332 331 331 330 330 329 329 329 328 328 328 328 328 327 327 327 327 327 327 327 326 326 325 324 324 324 324 324 324 324 324
318 313 317 322 318 315 316 317 315 313 314 314 314 314 317 318 314 312 310 312 318 320 323 325 325 324 324 325 327 328 328 328 327 326 328 329 330 330 331 331 331 331 332 332 332 332 332 333 333 334 335 336 336 336 336 337 337 336 336 336 336 335 335 334 333 333 332 332 331 330 330 330 330 329 328 328 328 327 327 327 327 326 327 327 326 326 327 326 325 324 325 325 324 324 325 325 325
320 316 315 318 315 314 316 317 314 312 314 314 314 314 314 316 315 313 310 309 313 316 316 317 319 319 319 320 322 323 325 326 325 324 326 328 329 330 330 331 331 331 331 331 331 331 331 332 332 333 334 334 334 335 336 336 336 336 336 336 336 335 335 335 334 333 333 333 333 331 331 330 330 330 329 328 327 327 327 327 326 326 327 326 325 326 325 325 325 325 325 325 326 325 325 325 326
319 319 318 320 317 314 316 318 314 312 313 314 314 314 314 314 314 313 311 309 310 311 311 311 313 314 315 315 316 317 320 322 322 321 324 326 328 329 330 331 331 331 331 331 331 331 331 332 332 333 333 333 334 334 335 336 336 336 336 336 336 335 335 335 334 334 334 333 333 333 332 331 331 330 329 328 327 327 327 327 327 327 327 325 325 325 325 324 324 324 324 325 325 324 324 324 325
311 313 315 318 318 316 317 317 315 312 314 315 314 314 314 314 314 313 311 310 311 311 311 310 310 311 312 313 314 314 315 317 317 318 321 323 325 328 329 330 331 331 331 331 331 331 332 332 332 333 333 333 333 334 335 335 335 335 335 335 335 335 335 335 334 334 333 333 333 332 332 332 332 331 331 329 328 328 328 328 328 328 328 326 324 324 325 324 324 324 324 325 325 324 324 324 325
309 310 312 314 316 317 316 315 315 313 313 315 315 313 313 313 313 312 310 311 312 312 311 311 311 310 310 311 312 312 312 312 313 315 317 320 323 326 328 329 330 331 331 331 332 332 332 332 332 332 333 333 333 334 334 334 335 335 335 335 335 335 335 335 334 334 332 332 331 331 331 332 333 332 332 331 330 330 329 329 329 329 328 328 326 326 326 324 324 324 324 326 327 326 325 324 325
310 310 310 312 314 315 315 314 314 312 312 317 317 314 314 314 313 312 311 312 313 312 311 311 311 311 310 309 310 311 312 313 314 314 314 317 321 323 327 328 329 330 331 331 331 332 332 332 332 332 333 333 333 333 334 334 334 335 335 334 334 334 334 334 334 333 332 331 331 330 330 331 332 332 332 332 332 331 330 330 330 328 327 327 328 328 327 324 324 325 325 326 326 326 325 324 325
311 311 310 312 314 314 315 314 313 312 312 315 316 315 315 313 313 313 312 312 312 311 312 312 312 312 311 310 310 310 311 312 314 314 312 313 318 322 325 327 328 329 330 331 331 332 332 332 333 333 333 333 333 333 334 334 334 334 334 334 334 334 334 334 334 333 332 331 331 330 330 331 331 330 330 331 332 331 330 329 327 325 325 327 329 329 327 325 326 327 326 326 325 325 325 325 325
313 312 311 312 313 315 315 314 313 313 312 313 314 315 318 317 315 316 314 311 311 311 311 312 312 312 311 311 311 311 310 311 312 314 312 309 313 319 323 325 327 328 328 330 331 331 332 333 333 333 333 333 333 334 333 333 334 333 334 334 334 334 334 334 334 333 332 331 331 330 330 332 331 330 329 331 332 331 330 328 327 327 328 329 328 327 327 327 327 327 327 328 326 326 325 324 324
314 314 313 312 312 315 316 315 314 313 315 316 312 315 327 330 320 316 314 311 311 310 311 312 312 312 311 311 311 310 310 311 311 312 310 308 309 314 320 324 325 327 328 329 330 331 331 332 333 333 333 334 333 334 334 333 333 333 333 333 333 333 333 333 332 332 331 330 330 330 330 332 333 332 331 332 332 331 331 330 330 329 328 328 328 328 328 328 328 327 327 327 326 326 324 323 324
313 315 314 312 312 315 318 317 315 318 319 315 312 316 327 328 320 317 316 316 314 311 311 312 311 311 311 311 310 310 310 311 311 311 309 307 307 310 315 321 324 326 328 329 329 330 331 331 333 333 333 334 334 334 333 333 333 333 333 333 333 333 332 332 331 331 330 329 329 329 330 331 332 332 332 332 332 331 331 330 329 328 328 328 329 328 327 327 327 327 326 325 324 324 323 323 322
314 318 318 315 312 316 320 317 317 321 317 314 315 317 319 318 317 317 315 316 318 315 313 313 310 309 311 310 310 310 310 310 311 312 310 307 306 308 312 317 322 325 326 328 329 329 330 331 332 333 333 333 333 333 333 333 333 333 333 333 333 332 332 332 331 330 330 329 329 330 331 331 332 332 332 332 331 331 330 329 329 329 328 327 327 326 325 325 325 325 324 323 323 323 323 321 320
316 321 320 318 315 317 319 316 317 318 314 318 321 314 314 320 322 320 315 312 315 317 316 317 313 311 310 310 310 310 310 310 310 312 310 306 305 307 310 314 319 323 325 327 328 329 330 331 331 332 332 333 333 333 333 333 333 333 333 333 332 332 332 331 331 330 330 329 329 330 330 331 331 330 331 331 330 330 330 329 329 328 326 325 325 325 324 323 323 323 323 323 322 322 321 320 319
317 319 319 320 321 319 317 317 318 314 312 320 322 314 313 321 327 323 315 312 315 316 316 316 315 312 310 309 309 309 310 310 311 311 307 304 306 307 309 312 316 320 324 325 327 328 329 330 331 331 332 332 333 333 333 333 333 332 332 332 332 332 331 331 330 330 330 329 329 329 329 330 330 330 330 330 329 329 328 328 328 327 325 324 324 324 323 322 321 322 322 321 320 320 320 319 318
315 317 319 319 322 323 322 326 322 313 316 323 323 317 312 317 325 321 315 316 318 317 315 315 315 314 314 314 311 309 309 311 312 312 306 303 306 308 309 311 314 318 322 324 325 327 328 329 330 330 331 331 332 332 332 332 332 332 332 332 332 332 331 331 330 329 329 329 329 329 329 329 329 329 329 328 328 327 327 326 326 325 324 323 322 322 322 321 320 321 320 320 319 318 318 317 316
315 320 321 318 323 323 324 329 321 313 321 324 319 316 312 314 321 318 316 317 316 315 316 317 317 317 319 320 317 312 310 311 314 317 314 308 308 309 309 311 313 317 320 323 325 326 327 328 329 330 330 331 331 331 332 332 332 332 332 332 332 332 331 331 330 330 329 329 329 329 329 328 327 327 327 326 326 325 325 324 323 322 322 321 320 319 319 319 319 319 318 318 317 316 315 314 313
315 320 318 316 322 321 318 323 319 316 320 315 312 314 313 314 317 315 315 314 314 313 312 315 317 317 319 321 322 320 316 316 318 319 321 319 313 308 309 311 312 315 318 320 323 325 326 327 328 329 329 330 330 330 331 331 331 331 331 331 331 331 331 331 330 330 329 329 329 329 328 327 326 326 325 325 324 323 323 322 321 320 318 317 316 315 315 316 316 316 315 315 314 312 311 310 309
314 317 316 317 322 318 316 318 316 317 318 312 309 313 315 316 316 316 315 312 314 313 309 311 312 312 315 317 322 325 321 320 321 320 326 326 313 307 310 311 311 313 315 317 319 321 323 325 326 328 329 329 329 330 330 330 330 331 331 331 331 331 331 331 330 330 329 329 328 328 327 326 325 325 324 323 322 321 321 320 320 318 315 313 313 312 311 311 311 310 310 309 308 307 306 304 303
315 318 318 321 325 321 320 321 320 320 319 313 309 313 320 321 317 316 315 312 313 312 312 314 311 310 312 314 321 327 324 323 322 322 325 318 307 307 311 311 311 312 312 313 313 314 317 319 322 324 326 327 328 329 330 330 331 331 330 330 331 331 331 330 330 329 329 328 327 327 326 325 324 323 322 321 320 320 319 319 317 315 314 313 312 310 308 307 306 304 303 301 300 299 298 297 295
317 319 317 319 323 324 320 319 323 323 319 315 311 315 323 320 313 313 312 312 313 312 313 315 316 318 317 318 325 328 326 326 323 324 326 315 305 308 311 311 312 312 311 312 312 311 312 312 315 317 320 323 325 327 329 330 331 330 331 330 330 330 330 330 330 328 328 327 326 325 325 324 323 322 321 320 318 318 317 316 315 314 313 312 311 309 308 305 301 298 296 295 294 293 293 292 292
315 315 317 317 317 322 320 313 314 316 315 317 313 314 321 317 312 315 316 315 314 313 314 314 318 323 323 326 328 326 327 327 324 325 325 315 307 308 311 311 312 312 312 313 312 312 312 311 311 313 316 320 322 324 326 327 330 330 330 330 329 330 330 329 329 327 326 326 325 325 324 322 321 321 320 318 316 316 315 315 313 312 310 309 309 308 305 300 296 294 293 293 292 292 292 292 291
315 315 318 315 313 320 323 317 316 315 313 319 316 314 318 317 315 321 322 316 313 313 313 313 317 321 326 329 327 324 324 324 322 321 317 309 305 308 311 311 312 312 312 313 312 313 312 311 311 311 313 318 320 323 324 325 328 329 329 329 329 329 328 328 328 326 325 325 324 323 322 321 320 318 317 316 316 315 314 312 310 308 307 306 305 301 298 294 293 293 292 292 292 291 291 291 291
315 317 316 315 315 317 318 316 318 314 312 321 321 314 314 316 317 321 319 315 316 314 312 314 316 318 323 328 327 323 322 322 322 322 319 310 305 309 311 312 313 313 313 314 314 314 313 312 311 310 312 316 320 322 324 325 326 327 328 328 327 327 327 326 326 325 324 324 323 322 321 320 318 316 316 315 313 311 309 308 307 305 303 300 297 294 293 292 292 292 292 291 291 291 291 291 290
312 313 311 314 317 318 318 316 317 315 313 320 320 315 317 319 319 320 315 314 318 316 317 319 317 316 317 320 323 323 322 322 321 321 320 310 304 308 311 312 314 314 314 315 315 315 314 312 311 311 312 316 320 322 323 324 325 326 326 326 326 325 325 325 324 324 323 322 321 320 319 317 316 315 314 312 309 307 306 305 303 300 296 294 293 292 292 292 291 291 291 291 290 290 290 290 290
313 314 312 312 313 315 317 316 318 320 319 320 317 316 326 326 317 316 313 312 314 315 318 320 319 319 316 313 316 318 318 320 318 317 318 309 303 307 310 310 312 313 314 315 315 316 315 313 312 312 313 317 320 322 323 324 324 324 324 324 324 323 323 323 322 322 321 320 319 318 317 316 315 313 310 308 306 305 303 300 296 294 293 292 292 292 291 291 291 291 291 290 290 290 290 290 290
315 315 314 313 314 316 317 314 316 318 317 320 317 315 327 329 317 313 313 312 312 313 316 317 318 319 315 311 310 312 315 317 315 315 315 306 302 305 307 308 310 311 313 314 315 315 314 313 313 313 314 317 319 320 321 322 322 322 323 323 322 322 321 321 320 319 319 317 317 316 316 314 311 308 306 305 303 300 296 294 293 292 292 291 291 291 291 291 291 291 291 290 290 290 290 290 290
Wind_Speed
7 5 4 3 3 2 3 4 2 2 3 2 1 0 2 2 2 1 2 0 1 2 2 2 4 4 4 5 7 6 3 3 4 4 3 3 15 21 16 18 18 17 16 14 13 14 14 14 14 11 11 12 13 14 14 15 15 15 15 15 15 15 16 15 12 11 12 14 16 16 15 15 17 17 17 16 16 17 17 17 17 17 17 17 16 15 15 16 17 17 17 16 16 17 17 16 16
6 4 3 2 3 2 1 3 3 3 5 1 2 2 2 3 1 4 5 3 3 2 2 6 8 7 7 7 6 4 3 2 2 3 0 8 18 15 15 19 19 17 15 14 14 14 15 16 15 11 11 12 13 15 15 16 15 15 15 14 14 14 15 15 12 12 14 14 14 14 14 15 16 16 15 15 16 16 16 16 16 17 17 17 17 16 16 17 17 17 16 15 16 16 16 15 15
6 3 2 1 2 4 1 3 2 1 3 1 4 3 1 1 4 6 6 5 7 7 5 6 7 5 5 5 3 3 1 3 3 2 3 13 13 11 18 20 18 16 13 13 13 14 16 18 16 12 11 12 14 15 16 16 15 15 14 13 12 12 14 14 13 14 14 13 13 14 15 15 16 15 15 15 15 16 15 16 17 17 17 17 17 17 17 17 17 16 15 15 15 15 15 15 15
5 4 3 2 2 4 4 4 2 3 0 3 3 4 1 5 6 5 5 4 6 5 3 2 4 2 4 6 3 2 0 2 4 2 5 11 10 15 21 19 17 14 13 13 13 15 18 19 15 12 12 12 13 15 15 16 15 14 13 12 11 12 13 13 13 14 14 13 14 14 14 15 15 15 15 15 15 15 15 16 16 16 17 16 17 17 17 17 16 15 15 15 15 15 14 14 14
5 4 4 4 3 2 3 2 2 3 3 4 2 5 4 6 6 6 4 3 3 2 3 3 3 2 3 4 1 2 0 3 4 3 7 9 14 20 20 19 17 14 14 13 14 17 19 20 16 12 12 13 12 14 15 15 15 13 13 12 11 12 12 13 14 14 14 14 14 14 13 14 14 15 15 14 14 15 15 15 15 16 16 16 16 16 16 16 15 14 14 14 14 14 14 14 14
3 4 7 6 3 1 3 1 1 1 5 5 3 5 5 6 6 6 3 3 3 1 2 3 4 2 3 2 1 3 1 3 5 6 9 12 17 21 20 19 17 15 15 14 15 18 20 20 16 12 11 12 12 13 14 14 14 13 13 12 12 12 12 13 14 13 12 13 13 13 13 13 13 14 14 14 14 14 15 15 15 15 15 15 15 14 14 15 15 14 14 14 14 14 14 14 13
4 2 5 6 2 2 4 1 3 3 4 5 4 5 7 7 6 6 5 3 1 3 2 3 5 7 3 1 2 1 1 5 7 9 12 16 20 21 21 19 17 15 15 14 15 17 20 19 16 13 12 12 11 12 13 13 14 13 12 11 11 11 11 13 13 11 11 12 12 12 12 12 12 13 14 14 13 14 14 14 14 14 14 14 14 13 13 14 15 14 13 13 13 14 14 13 12
6 1 1 4 1 3 4 1 3 3 2 3 4 5 8 7 6 6 5 3 2 1 3 2 3 6 1 2 2 2 3 6 8 12 15 20 22 21 21 19 17 16 15 14 15 18 20 18 16 15 15 14 11 11 12 12 13 12 11 10 10 9 10 12 12 11 11 12 11 11 11 11 11 12 12 13 13 13 13 13 13 13 13 13 13 13 13 14 14 13 13 13 14 14 14 13 13
6 3 0 3 2 2 2 2 4 3 3 4 3 3 4 5 4 4 4 2 3 4 2 2 3 4 1 4 1 3 4 10 12 14 17 21 22 21 21 19 17 17 16 15 15 17 19 18 16 15 15 14 13 12 11 11 12 11 10 10 10 9 10 12 12 12 12 11 10 10 10 10 11 11 12 13 13 12 12 12 12 12 12 12 12 12 13 13 13 12 12 13 14 13 12 12 12
5 4 1 2 2 1 3 3 3 2 4 4 3 3 3 4 4 1 3 4 3 5 2 2 6 5 4 3 0 2 5 15 16 17 19 21 21 21 21 18 17 17 17 15 15 16 17 18 16 15 15 14 13 13 13 11 11 11 11 10 10 9 11 13 12 12 12 10 9 9 9 10 10 11 12 13 12 12 11 11 11 11 11 11 11 12 13 13 12 11 11 13 13 12 11 11 10
3 4 2 4 3 1 2 3 4 3 4 3 1 2 3 3 4 1 2 4 2 4 3 1 5 5 4 2 2 1 9 19 19 21 21 21 21 21 20 18 16 16 16 16 15 15 16 16 15 16 15 14 13 13 13 11 11 11 10 9 10 9 11 13 12 11 11 11 10 9 10 10 9 10 12 12 11 11 11 11 11 11 10 10 10 11 12 12 11 10 11 12 12 11 11 10 9
2 3 4 4 2 2 3 3 5 4 5 1 2 3 3 4 4 3 4 5 2 4 3 2 5 5 5 2 2 1 11 19 20 23 22 21 21 20 19 18 17 15 16 16 15 15 15 16 17 17 15 14 14 14 13 11 10 10 9 8 9 9 12 13 11 11 12 12 10 10 10 10 10 11 11 12 11 11 10 10 10 9 9 9 9 10 10 10 10 10 11 11 10 10 10 10 9
3 1 5 2 2 2 3 2 3 3 4 2 4 2 5 4 3 7 7 5 4 5 3 5 8 6 3 2 1 2 10 17 22 24 22 21 20 19 19 18 17 16 15 15 15 15 16 17 17 17 15 14 14 13 13 13 11 10 9 7 8 9 14 13 10 12 12 12 11 10 10 9 9 9 9 11 11 10 9 10 10 9 9 8 8 9 9 9 10 11 12 11 10 10 9 9 8
2 3 5 2 1 2 4 1 2 2 3 5 3 2 4 2 3 7 8 6 3 3 2 4 8 7 2 2 1 3 10 17 24 26 23 22 20 19 19 18 17 16 16 15 15 15 16 17 17 17 16 14 13 12 12 13 13 11 9 8 8 9 15 14 10 11 11 11 10 10 10 9 8 7 7 8 8 9 9 10 10 9 9 8 8 8 8 9 10 12 12 11 10 10 8 7 6
1 2 4 3 1 0 3 1 2 5 4 4 3 4 3 1 3 5 5 7 3 3 3 3 4 3 3 6 4 8 15 21 26 27 25 23 21 20 20 19 18 17 16 15 15 15 16 16 17 16 15 15 13 11 11 13 14 13 11 9 8 9 13 13 10 10 10 11 10 10 9 8 7 6 5 4 6 8 8 7 6 7 8 7 8 8 9 10 11 11 10 10 9 8 7 5 5
2 3 5 2 0 1 3 2 3 3 5 4 3 6 5 2 2 4 3 5 4 0 2 2 1 1 6 9 7 16 23 25 28 28 27 24 23 22 21 21 20 19 17 16 16 15 16 16 16 16 15 14 12 11 11 13 14 14 12 10 8 9 11 11 11 11 10 11 11 10 9 8 7 5 4 4 6 6 5 4 4 6 6 7 8 8 10 10 10 9 9 9 8 7 6 5 4
2 3 4 1 2 2 3 4 4 3 5 5 3 5 7 2 0 2 2 4 5 2 3 1 1 2 7 4 5 23 28 27 29 27 26 25 24 22 21 21 21 20 19 18 17 16 16 16 16 16 15 14 12 12 11 12 13 13 12 10 9 9 10 11 11 11 11 11 12 11 10 8 7 6 5 4 5 4 2 2 3 4 5 6 7 9 10 10 9 9 9 8 7 6 6 5 5
3 2 3 2 3 4 5 7 7 4 5 7 6 6 9 6 3 2 3 5 3 3 4 3 3 3 3 4 8 27 28 28 30 27 25 24 24 23 21 20 20 21 22 21 19 18 18 17 17 16 16 14 13 13 12 12 12 12 11 11 11 11 10 11 11 11 11 12 12 11 9 8 6 6 5 4 4 3 2 2 2 3 4 5 6 8 8 8 8 8 8 7 7 7 6 6 5
2 3 2 3 5 5 6 7 6 4 5 7 7 6 8 9 6 4 3 2 1 4 2 5 4 4 2 5 17 27 27 29 29 27 26 25 26 26 23 21 21 22 23 24 23 21 19 18 18 17 17 15 14 14 13 12 12 11 10 10 11 12 11 10 10 11 11 11 11 10 9 8 6 5 5 5 4 4 4 3 3 3 4 5 5 6 7 7 7 7 7 6 6 6 6 5 4
1 3 1 5 5 5 5 7 7 5 5 8 7 5 5 7 6 4 5 5 4 5 4 0 1 2 3 9 19 24 25 26 26 26 25 26 28 28 28 25 24 25 27 27 25 23 21 19 19 18 17 16 15 15 14 13 13 12 11 10 10 11 12 10 10 10 11 11 11 10 9 8 7 5 5 4 4 4 5 5 5 4 4 5 6 6 6 6 6 6 6 5 5 5 4 4 3
1 3 4 6 3 3 6 6 7 5 6 8 6 5 4 6 4 4 8 7 5 6 7 7 8 9 8 10 16 21 22 22 23 24 24 25 26 27 28 27 27 28 28 27 26 25 23 21 20 19 18 17 16 16 15 14 14 14 13 11 10 10 10 10 11 11 11 11 11 11 10 9 7 5 4 3 3 3 4 5 5 5 4 5 5 6 6 5 5 5 5 5 4 3 4 3 3
2 3 5 6 3 3 6 4 6 5 7 6 6 7 6 5 3 5 11 9 6 7 9 10 10 13 15 15 17 19 19 19 20 22 23 24 24 24 25 24 23 23 24 26 27 27 25 23 21 19 19 18 17 16 16 15 15 15 14 13 12 10 10 10 11 12 12 11 12 11 10 9 7 5 4 2 2 3 4 5 5 4 4 4 5 6 6 6 6 5 5 5 4 4 4 4 4
1 4 4 5 3 4 4 3 3 5 9 9 8 6 6 7 2 5 11 10 7 5 7 8 9 15 21 21 19 17 16 19 20 23 25 25 25 25 25 24 23 23 25 26 28 27 26 25 23 21 20 19 19 17 16 16 15 15 14 14 13 12 12 11 12 13 13 12 12 11 10 8 7 6 5 3 2 3 4 5 5 5 5 4 5 6 7 7 7 7 6 6 6 6 6 6 6
2 4 7 6 4 5 4 4 3 4 7 8 4 4 8 9 5 4 8 10 6 5 3 8 10 15 19 17 17 18 20 22 23 26 28 28 29 28 27 27 26 26 26 27 28 28 28 26 25 24 22 21 20 19 18 17 17 16 15 15 14 14 13 13 13 13 14 13 12 11 9 8 8 7 6 4 3 4 4 5 5 6 6 5 6 7 7 7 7 7 7 8 8 8 9 9 10
2 4 6 6 4 5 4 4 1 3 3 2 6 5 6 6 4 5 9 10 5 3 4 9 11 13 13 13 14 16 19 21 23 24 26 27 28 27 27 27 26 26 27 29 29 28 29 27 26 26 24 23 21 21 20 18 17 17 17 16 15 15 15 15 14 14 15 14 13 12 10 9 9 9 7 5 5 5 5 5 5 5 5 5 6 6 6 6 7 7 7 8 9 9 10 11 12
1 4 7 7 7 6 3 3 2 3 1 3 7 4 1 1 1 3 9 8 3 2 7 9 10 11 11 11 13 15 15 19 23 23 25 26 26 25 26 27 26 27 29 30 30 29 28 28 27 26 25 24 22 22 22 20 18 18 18 18 16 16 16 15 15 15 16 16 15 13 11 10 9 9 8 7 8 7 6 7 7 6 4 5 6 6 6 6 7 7 8 9 9 10 11 12 13
4 6 8 8 8 7 2 2 3 1 1 3 7 4 2 3 1 4 7 5 6 7 7 7 10 12 12 11 11 15 16 20 25 24 23 23 25 27 27 28 28 28 30 30 31 30 27 28 28 27 26 25 23 23 23 22 20 19 19 18 18 17 15 15 16 16 17 17 16 14 13 11 9 9 8 8 9 9 8 8 7 8 7 6 6 7 7 7 8 9 10 11 11 12 13 13 14
7 6 8 9 5 6 2 1 3 1 1 3 6 2 3 4 1 6 6 5 7 9 9 8 10 10 11 12 10 13 16 21 23 22 23 26 28 30 30 31 31 30 31 31 31 30 28 28 28 28 27 26 25 25 24 23 22 21 19 19 19 18 16 15 16 16 17 17 16 15 13 11 10 9 9 9 10 10 10 9 8 9 9 8 8 8 8 9 10 11 12 12 13 14 14 15 15
6 3 5 8 6 5 5 2 1 1 2 4 6 1 4 2 6 6 2 5 7 8 10 9 9 9 9 10 8 10 15 18 18 21 26 30 31 32 32 33 33 33 33 33 32 31 31 29 29 29 28 28 27 26 26 24 23 22 21 21 20 19 17 17 17 17 16 16 15 15 14 13 12 11 10 10 10 11 11 11 11 10 9 9 10 10 10 11 11 12 13 13 14 14 15 16 16
4 2 2 3 5 5 6 1 2 1 1 3 5 2 5 8 12 5 2 6 8 7 8 8 8 7 7 8 7 9 12 15 18 24 29 29 30 32 34 35 35 36 35 34 34 34 34 31 30 30 30 30 29 28 27 26 25 24 23 22 22 21 20 19 19 18 17 16 15 15 14 14 13 12 11 11 11 12 13 12 12 11 10 10 11 11 11 12 13 13 14 14 14 15 16 17 18
4 3 1 1 1 4 7 1 4 4 1 2 5 4 6 9 12 5 4 6 9 9 8 8 8 6 6 7 8 8 10 16 21 26 28 28 29 30 33 34 35 36 35 35 36 36 35 34 32 31 32 32 31 30 29 28 27 26 25 24 23 22 21 21 21 20 19 17 16 15 15 15 14 13 12 12 12 13 13 13 13 12 12 12 12 12 12 13 14 15 15 15 15 16 17 18 20
3 2 3 2 3 4 8 2 5 6 1 2 5 4 6 8 9 4 4 6 7 9 8 8 8 8 8 7 8 8 9 16 21 24 26 27 28 29 31 33 34 35 36 37 37 36 36 36 35 34 34 34 33 32 30 30 29 28 27 26 25 24 23 23 22 21 20 19 18 17 16 16 15 14 13 12 12 13 14 14 13 13 12 12 12 13 14 14 15 15 16 16 17 18 18 17 18
3 1 3 2 3 2 5 3 3 3 1 0 2 3 4 6 6 5 3 8 7 8 8 9 9 9 9 7 8 8 8 11 16 22 26 28 29 30 31 32 33 35 36 37 36 36 37 36 37 36 36 36 35 34 32 31 31 30 29 27 26 25 25 24 23 23 22 21 20 19 18 18 17 15 14 14 14 15 15 14 14 13 13 12 13 13 14 16 16 17 17 17 19 21 20 18 18
2 0 3 3 3 3 2 4 4 1 2 2 4 4 6 7 5 5 1 7 7 8 9 9 9 8 8 8 7 8 9 9 12 22 29 30 31 31 31 31 32 34 35 36 36 36 37 36 37 37 37 36 36 35 34 33 32 31 30 29 28 27 27 26 24 24 24 23 22 22 20 19 18 17 16 15 15 16 16 16 15 15 16 16 16 15 14 16 18 17 18 20 21 21 21 20 22
3 2 2 2 3 3 3 4 3 3 2 3 5 5 9 11 8 5 1 4 6 9 8 6 8 8 7 7 7 8 9 10 15 24 30 31 32 32 32 31 31 33 34 35 35 35 35 36 36 37 37 37 36 36 35 34 33 32 31 30 29 29 29 28 27 27 26 25 25 24 22 20 20 20 18 16 16 17 17 16 15 14 15 16 18 17 16 17 17 17 18 20 20 18 19 20 23
5 3 2 3 3 3 4 4 4 3 4 4 7 7 10 13 11 6 1 3 6 8 6 5 6 6 7 7 7 8 9 12 18 23 25 27 30 32 32 32 31 32 33 34 34 35 35 36 36 37 38 38 36 35 35 35 34 33 32 31 31 31 31 30 29 29 27 27 26 25 24 22 22 22 20 19 19 18 18 17 16 16 14 13 15 16 16 16 17 17 18 19 18 16 18 20 22
3 2 1 2 3 3 4 3 5 1 4 6 7 8 10 11 12 7 2 1 4 8 8 8 7 6 7 8 9 10 11 13 14 16 20 24 28 30 31 31 31 31 32 33 34 35 36 36 37 38 38 38 37 37 36 36 35 33 32 33 33 33 32 31 30 30 28 27 26 25 25 24 23 23 23 22 22 21 20 20 19 19 17 15 13 12 12 14 15 16 17 18 17 16 18 21 21
5 4 3 3 3 4 5 3 5 2 3 4 2 6 10 11 11 7 1 3 6 10 10 10 10 8 8 9 11 11 10 9 8 11 17 21 24 28 30 31 31 32 32 34 35 36 37 37 38 38 38 38 38 38 38 37 37 35 34 33 33 32 32 32 31 30 29 28 27 26 25 25 24 23 23 23 23 23 22 21 19 19 20 19 18 15 12 13 14 15 18 21 19 17 19 20 19
5 5 3 4 3 3 5 3 3 2 2 3 1 4 9 11 11 6 4 6 8 9 10 10 10 9 9 10 10 10 10 9 8 10 14 20 24 27 29 31 33 34 33 34 36 36 37 37 38 39 38 39 39 39 39 39 38 37 35 33 32 31 31 31 31 30 28 28 28 26 25 24 23 22 22 21 21 20 19 18 17 17 16 19 23 20 15 14 16 16 17 19 17 17 19 19 19
5 3 4 5 2 2 3 3 2 2 1 1 1 3 7 8 8 6 7 9 8 6 8 9 8 10 11 10 8 9 11 11 10 10 12 16 21 23 27 30 32 33 33 34 36 36 37 38 39 39 39 40 40 40 40 39 37 35 34 33 31 30 30 29 28 29 29 28 28 27 25 23 23 22 20 19 19 17 16 14 13 14 14 18 20 17 15 16 17 17 17 17 16 18 20 19 17
5 5 6 5 4 5 4 2 0 1 2 2 2 3 5 6 6 8 7 5 7 6 6 8 8 10 10 7 8 10 11 11 11 11 10 12 18 23 28 31 31 31 34 36 37 37 38 39 40 40 39 40 40 40 39 38 36 33 32 30 28 27 27 27 26 28 28 27 27 26 25 24 23 20 17 18 18 16 15 15 15 15 16 17 15 16 18 16 15 17 18 18 18 19 19 17 13
5 5 8 8 7 6 3 1 2 2 3 2 1 2 6 5 5 9 6 2 6 5 5 9 10 10 9 8 11 11 10 10 10 11 10 11 16 21 25 28 30 32 35 37 38 38 39 39 39 39 39 40 40 39 39 38 36 34 32 30 28 26 26 27 27 26 25 25 26 26 25 24 23 20 18 18 17 16 17 17 16 16 17 17 16 17 17 13 16 19 17 16 14 13 13 13 13
4 5 9 10 7 4 3 4 3 3 4 3 1 4 6 6 4 8 5 4 8 6 5 10 10 10 9 10 12 10 9 10 9 10 9 11 15 18 21 26 30 33 36 36 36 37 38 38 38 38 39 39 39 39 38 38 37 36 34 33 32 29 28 28 27 25 24 23 23 24 24 23 22 21 20 19 18 17 18 16 16 17 16 15 14 13 12 13 17 16 12 9 7 6 7 9 12
4 3 7 8 7 6 6 7 5 3 3 2 3 3 3 5 5 6 2 4 9 8 8 10 10 11 12 12 12 11 11 10 9 10 9 12 16 20 24 29 33 36 36 35 35 36 37 38 38 38 39 39 38 38 37 38 38 37 35 34 33 32 31 28 25 23 22 21 20 20 21 21 21 19 19 18 16 16 15 15 15 14 11 11 11 11 10 11 10 7 4 3 3 4 4 5 7
6 3 6 6 5 5 5 7 4 1 1 3 3 2 2 6 6 4 3 3 9 9 10 11 11 13 13 13 13 11 11 9 9 10 10 12 18 23 26 28 31 34 33 33 34 35 36 37 37 37 37 37 37 37 37 37 38 37 36 34 33 31 30 27 24 22 20 19 18 18 18 18 18 17 16 16 15 14 13 13 12 10 11 12 11 10 8 4 3 1 1 1 2 3 4 5 5
4 4 7 5 4 4 3 5 3 2 1 6 5 3 3 5 5 3 2 3 7 8 9 10 10 10 10 10 11 10 9 8 9 9 11 15 19 21 22 22 24 27 29 30 31 32 33 34 35 35 35 36 36 36 36 37 37 36 35 34 33 31 28 25 23 21 19 18 17 16 16 15 15 15 14 14 13 13 12 11 10 10 11 9 7 8 8 5 3 4 4 4 3 5 5 6 5
5 6 5 6 5 4 3 2 3 2 3 6 6 3 2 4 5 4 4 5 7 8 8 8 7 7 7 9 9 9 8 8 8 8 11 15 16 16 16 18 20 22 24 26 27 28 30 31 33 34 34 35 35 36 36 36 36 36 35 35 33 31 29 26 24 22 20 19 17 16 15 15 15 14 13 12 12 11 11 12 10 9 10 8 8 9 9 9 9 8 7 7 8 9 9 8 8
6 4 4 4 2 2 2 3 2 3 5 6 4 1 3 5 5 4 6 6 6 8 7 8 8 7 7 7 7 7 7 7 7 7 8 10 10 11 14 17 19 20 21 24 26 27 28 30 31 32 33 33 34 34 35 35 35 35 35 34 33 32 30 28 26 25 23 21 19 18 17 17 15 14 13 13 12 12 12 11 11 11 11 12 13 12 12 13 14 12 11 12 12 12 10 10 9
5 4 6 5 1 1 2 2 1 4 5 3 2 1 2 5 7 8 9 11 10 9 9 9 9 8 8 7 6 6 5 5 6 6 6 5 6 10 13 16 18 20 22 24 25 26 27 28 29 31 32 33 32 33 34 34 34 34 34 34 33 32 30 29 27 26 24 22 21 20 20 19 17 15 15 14 13 13 12 11 11 11 11 11 11 10 11 12 12 12 11 10 9 7 6 4 3
5 5 6 6 3 4 6 3 1 3 4 3 2 1 2 4 6 10 14 14 11 8 9 10 9 9 9 8 7 6 5 5 5 5 5 5 6 9 12 13 15 17 19 21 22 24 25 26 27 29 30 31 31 32 32 33 34 34 33 33 33 32 30 29 27 26 24 23 22 22 21 19 18 17 16 15 14 13 12 11 11 10 8 7 5 4 5 5 4 4 4 4 4 4 5 6 6
4 4 4 5 5 5 6 3 3 4 3 3 2 1 3 3 4 8 11 11 9 5 7 8 7 9 8 7 7 6 6 5 4 5 5 5 7 8 9 10 11 13 14 15 17 20 22 24 25 27 28 29 29 30 31 32 32 32 32 32 32 31 30 28 27 26 25 24 23 22 20 19 18 17 16 15 14 13 13 12 10 9 7 5 3 4 7 9 11 12 12 12 13 12 12 11 11
4 2 3 4 5 5 3 3 5 4 1 2 2 3 4 4 6 9 6 7 9 7 8 7 7 8 5 6 7 6 5 5 5 5 4 6 7 8 8 9 10 10 11 12 14 15 17 20 22 24 25 26 27 28 29 30 30 31 31 31 31 30 29 28 27 26 24 24 23 22 20 19 18 17 16 15 14 13 12 11 10 8 7 6 5 7 9 11 13 14 15 15 15 15 13 13 12
2 2 4 5 2 7 4 1 1 3 2 3 1 3 5 3 7 10 5 7 9 8 7 7 7 6 5 6 6 5 6 5 5 5 4 5 6 7 8 9 9 10 11 12 12 14 15 17 19 20 21 22 23 25 27 28 28 29 29 30 30 29 29 28 27 26 24 24 22 21 20 19 18 17 16 15 14 13 12 11 9 8 8 8 9 10 11 13 14 15 16 15 15 14 12 12 11
5 3 6 3 2 3 3 2 1 3 4 4 0 4 5 1 4 7 7 8 11 10 7 6 7 6 6 8 7 6 7 5 5 5 4 4 5 6 6 7 8 9 10 11 12 13 14 16 17 18 19 20 21 22 24 26 27 28 28 28 28 28 28 28 27 26 25 24 22 21 20 19 18 17 16 15 14 13 12 11 10 10 11 12 13 14 15 15 15 15 15 14 14 13 11 10 9
4 4 5 4 3 2 1 3 3 2 4 4 3 3 3 4 5 5 7 8 10 10 6 5 7 8 8 8 7 7 6 5 5 5 4 4 4 5 6 7 8 8 9 9 10 11 13 15 16 16 17 18 19 21 22 24 25 26 27 27 27 27 27 27 27 27 26 24 23 22 21 20 19 18 16 15 14 13 13 13 13 15 16 17 17 17 17 16 15 15 14 13 12 10 9 8 7
2 1 2 1 2 4 3 3 4 3 3 3 3 4 3 6 6 6 10 11 10 8 6 5 8 8 8 7 7 7 6 6 6 5 4 4 5 6 6 7 8 8 8 8 9 10 11 13 15 16 16 17 19 20 22 23 24 25 26 26 26 26 27 27 27 27 25 23 22 22 21 20 20 18 16 15 14 15 16 17 18 19 19 19 19 18 17 16 15 14 13 12 10 9 7 7 6
2 3 4 2 0 2 2 1 3 4 4 3 3 4 5 6 6 9 13 13 10 8 6 6 7 8 8 7 6 6 6 6 5 5 4 5 6 7 7 8 8 8 8 9 9 10 11 13 15 17 18 20 21 22 23 25 25 26 26 27 27 27 28 27 26 25 24 23 22 22 22 20 19 17 16 16 18 19 20 21 21 21 20 20 19 18 16 14 13 12 11 10 8 7 6 7 7
4 4 6 5 3 4 3 4 1 2 3 4 4 5 7 6 5 9 12 12 9 6 5 6 7 7 7 7 7 6 6 6 5 5 5 5 7 8 8 9 9 9 9 10 10 11 12 13 15 17 19 21 23 23 24 25 25 26 27 27 28 28 27 26 25 24 23 23 23 23 21 20 19 18 19 21 23 23 23 23 22 22 21 19 18 17 15 12 11 10 9 8 7 6 6 7 8
Wind_Direction
356 349 347 4 341 347 33 61 62 327 70 80 322 132 236 216 179 167 151 248 18 355 326 47 69 75 99 121 148 151 123 154 165 148 208 214 146 152 161 158 159 159 154 147 147 142 139 139 134 138 144 135 131 129 128 127 125 125 120 117 113 108 107 102 98 96 93 91 93 94 94 93 88 87 90 91 88 86 87 88 90 90 90 90 90 91 91 90 90 90 87 87 93 93 90 89 86
359 2 3 39 32 31 303 70 86 334 42 45 279 164 265 320 135 183 196 196 144 161 127 93 85 73 71 95 118 107 54 22 145 147 132 148 146 152 158 158 161 158 152 147 148 147 144 137 134 138 137 131 128 128 128 128 126 123 119 116 113 109 108 105 102 99 96 95 96 93 92 94 92 90 89 89 87 87 88 87 89 90 90 90 90 92 95 94 93 94 89 88 93 93 91 92 90
6 13 21 101 60 46 57 42 77 51 52 277 269 246 272 139 189 209 212 173 146 155 144 105 88 81 71 70 56 72 41 358 95 106 116 145 146 150 158 160 161 156 149 147 149 152 145 134 134 139 130 127 128 129 130 128 125 121 118 117 116 114 112 111 108 102 100 99 97 91 90 95 96 94 89 89 91 91 89 89 90 90 90 90 90 92 96 97 97 95 91 89 90 90 92 93 90
14 24 34 101 60 34 61 40 113 118 145 230 248 266 225 177 201 214 211 166 152 155 159 95 66 17 81 89 48 63 87 33 92 97 131 154 156 155 159 160 160 155 148 147 150 149 143 134 133 142 131 125 128 130 130 128 124 120 121 121 119 114 110 110 108 105 105 101 98 96 96 96 96 96 93 92 94 93 91 91 91 90 90 90 91 92 96 99 97 95 94 90 88 89 91 90 87
19 44 48 76 76 34 87 58 103 104 229 195 176 261 237 193 187 185 200 242 241 217 215 109 82 312 69 91 92 108 131 98 105 118 132 157 163 158 160 160 159 152 149 148 148 149 144 136 133 141 134 125 128 130 130 127 123 123 125 122 115 109 106 107 106 109 112 105 101 103 102 99 99 100 98 96 98 96 94 93 92 92 92 91 92 93 96 100 98 95 97 92 89 90 90 88 83
37 76 50 66 92 104 112 2 215 225 238 169 158 247 220 196 184 169 168 263 273 265 224 102 119 134 70 17 79 130 172 125 125 145 146 157 163 160 161 161 159 151 149 149 150 151 146 139 134 138 138 131 131 130 130 130 128 128 126 118 112 108 104 107 109 112 114 108 106 107 104 103 105 104 98 96 95 95 95 96 97 96 94 94 94 95 98 103 101 97 97 93 91 92 92 89 84
53 93 34 62 76 26 105 188 217 242 245 172 180 197 186 201 188 153 144 178 121 13 32 89 125 110 74 328 79 51 110 142 143 157 164 160 162 161 162 162 157 151 148 150 151 151 147 143 138 142 145 136 133 133 133 135 132 130 124 115 112 108 104 109 113 115 111 111 112 109 107 105 109 107 99 97 96 96 97 95 96 95 95 95 94 94 98 106 105 99 98 94 95 94 92 91 88
51 77 8 81 76 12 92 220 244 222 232 215 219 185 180 193 174 150 157 164 139 35 64 103 90 92 34 12 104 325 76 144 152 159 165 159 162 162 165 164 155 151 150 151 150 151 150 148 148 150 148 138 133 135 138 137 132 130 124 115 114 108 106 114 116 117 113 116 116 111 110 108 112 110 102 104 103 101 100 97 96 96 96 95 94 96 99 108 109 103 102 99 98 96 91 90 89
47 42 38 85 126 19 38 312 287 235 258 264 226 188 182 178 160 144 142 116 142 132 125 179 77 99 161 34 81 304 80 139 148 153 162 161 164 165 167 165 156 152 150 152 152 155 156 155 156 154 149 142 138 139 142 142 136 133 127 118 116 113 115 120 121 121 118 120 121 114 112 110 111 107 103 105 104 103 103 102 101 101 100 97 98 101 103 110 111 106 106 104 101 98 93 91 90
38 25 123 78 113 20 332 300 295 254 270 264 213 200 179 168 157 146 128 127 133 117 155 166 78 103 134 62 351 327 119 145 145 150 160 164 166 168 168 166 159 152 151 153 153 157 159 161 161 156 152 147 145 145 146 146 144 138 131 127 124 122 123 126 124 124 124 120 116 111 111 112 111 107 107 108 106 105 105 105 104 104 104 103 102 105 108 112 112 110 112 110 104 99 94 90 90
32 357 105 72 76 143 253 250 283 268 288 300 273 248 175 155 127 79 91 117 80 108 176 105 84 114 95 33 271 329 154 152 150 153 161 166 168 171 169 166 163 155 152 152 152 156 158 161 160 157 154 150 149 148 149 148 146 143 140 137 133 129 126 128 127 129 131 124 120 118 119 120 116 111 110 111 108 106 105 105 104 103 104 104 105 108 110 113 115 115 122 120 111 104 97 89 87
84 341 68 86 146 191 211 212 277 286 317 331 197 258 158 129 123 154 134 133 119 112 205 206 133 135 79 350 279 125 160 160 157 156 163 169 171 174 171 168 165 159 154 150 151 154 155 158 158 157 154 152 149 148 151 152 151 149 147 141 137 137 132 131 136 141 135 130 136 141 139 129 118 113 114 118 113 108 108 108 106 104 103 104 109 111 111 117 122 127 136 134 122 115 105 95 89
119 129 88 125 182 159 175 188 280 321 328 259 198 233 134 134 195 182 140 121 137 119 241 212 141 109 83 241 268 151 173 170 160 158 165 170 173 175 173 171 167 164 158 153 151 152 154 158 159 158 157 155 153 152 153 156 158 155 152 148 145 147 141 138 147 153 146 144 148 149 151 140 129 126 123 126 123 122 123 116 109 105 103 104 108 111 115 121 127 136 143 141 134 128 117 108 97
128 157 106 148 158 131 159 160 256 172 250 251 206 169 137 171 212 180 134 118 182 170 197 181 138 110 93 208 234 201 189 176 163 161 166 170 175 173 175 175 171 169 163 159 155 153 156 161 164 162 164 163 161 160 160 163 168 169 170 165 153 150 152 152 155 159 159 159 154 145 149 148 141 138 131 130 128 130 131 122 115 114 112 115 118 117 123 123 124 135 139 139 140 137 130 124 113
113 145 87 117 25 358 179 182 175 161 220 224 172 154 138 248 156 166 155 138 205 245 132 128 148 128 162 173 193 205 186 176 166 164 167 171 176 174 177 176 174 174 168 167 162 159 159 164 169 168 171 170 166 165 167 173 176 177 177 173 161 151 160 162 154 155 161 163 160 153 154 154 149 148 146 133 126 129 126 117 116 123 122 126 131 125 125 125 127 133 134 137 141 144 145 145 139
99 110 66 99 242 276 209 183 123 136 233 219 168 141 126 294 139 158 238 142 142 351 90 153 203 60 166 176 201 188 177 172 166 166 168 170 175 176 178 177 177 177 174 174 171 167 163 166 171 174 178 176 173 167 166 173 177 181 180 180 168 151 159 163 155 155 160 161 162 162 163 163 161 163 161 139 133 135 122 96 90 115 124 129 133 127 125 129 132 132 133 135 136 141 146 150 153
68 81 70 101 186 210 208 177 166 168 223 227 214 154 143 236 170 150 324 74 117 100 24 220 266 39 171 223 205 173 170 168 166 165 165 165 170 172 175 177 178 178 179 181 179 177 172 171 174 176 181 182 181 174 168 167 171 179 182 182 172 158 158 161 162 160 163 165 166 167 166 168 167 169 168 161 155 152 133 93 85 104 121 128 130 129 131 132 133 133 132 132 131 132 134 138 142
43 79 109 179 192 200 189 179 193 178 185 198 199 176 154 166 175 149 54 46 60 78 11 320 334 7 194 253 162 161 165 165 165 164 163 164 167 169 172 177 181 181 183 184 184 185 181 178 177 178 182 184 184 182 178 170 166 169 174 179 173 168 164 162 164 165 167 169 171 173 173 175 173 173 175 176 177 179 169 137 117 106 114 125 129 132 135 137 135 135 135 132 132 131 133 136 137
88 121 130 216 206 214 195 175 190 182 177 178 183 186 171 172 163 142 129 184 202 116 347 336 3 9 60 144 148 155 162 164 166 167 167 169 170 172 173 178 185 186 186 186 187 189 189 186 183 183 183 184 185 185 185 180 175 171 171 175 174 174 173 167 164 165 168 170 175 177 177 178 176 178 184 188 190 190 183 165 151 133 129 134 137 142 146 146 143 143 143 140 137 138 142 145 150
168 136 197 242 217 240 232 184 200 202 162 163 180 183 181 181 153 146 153 175 217 185 197 165 184 224 126 146 149 153 162 165 168 170 172 176 176 178 177 180 187 189 190 189 189 190 192 192 190 189 186 187 187 187 187 186 184 182 180 179 177 177 176 173 168 166 167 168 172 172 171 169 164 165 171 185 195 197 194 182 168 156 150 151 155 160 162 163 161 159 159 156 151 154 162 170 186
292 165 196 235 194 256 257 202 210 206 161 164 165 136 168 192 145 143 142 146 245 241 217 197 185 178 158 162 157 156 163 167 171 173 176 180 181 184 185 186 188 191 191 191 192 192 193 195 195 193 192 193 192 191 190 188 188 189 189 188 186 181 179 178 174 172 170 168 168 167 167 165 163 160 157 171 192 207 208 199 188 178 174 174 175 178 182 187 185 183 181 181 184 190 200 212 225
309 240 218 232 180 254 268 221 208 177 136 139 151 157 169 165 132 157 154 165 225 227 221 209 182 165 162 167 164 162 167 171 175 177 180 183 186 188 190 192 191 193 193 193 195 195 195 196 197 197 196 198 198 198 195 193 193 193 194 192 192 191 189 187 183 183 181 178 175 175 177 177 177 173 174 187 210 229 220 214 210 204 201 197 198 198 201 205 207 209 209 212 226 238 245 257 262
308 281 284 268 207 238 295 327 240 155 133 158 174 180 142 132 169 179 173 192 224 237 216 197 180 167 163 163 165 168 173 178 181 182 184 185 188 189 191 194 194 195 194 196 198 198 197 196 197 199 200 201 202 203 201 200 199 198 197 196 197 196 196 197 196 195 193 190 188 191 192 193 193 191 199 213 245 255 230 221 222 225 226 224 221 215 214 218 222 225 227 237 251 262 273 280 283
149 260 298 292 219 222 301 332 275 152 159 183 156 140 151 164 179 155 196 218 252 295 207 162 163 159 157 161 171 178 180 183 186 187 188 189 191 192 193 195 197 198 197 198 200 200 199 198 197 199 202 204 205 204 203 204 204 203 203 203 204 202 202 203 204 204 202 201 201 203 203 206 208 207 212 220 256 264 233 224 229 233 235 239 235 225 222 224 229 235 239 249 260 272 283 287 288
132 248 289 301 265 250 298 321 298 124 176 143 106 152 178 185 157 143 213 232 270 319 125 140 147 149 158 171 181 186 186 186 187 189 191 193 194 195 197 198 199 200 200 200 201 202 200 199 199 200 204 206 207 207 205 205 205 207 208 211 211 209 210 208 206 208 209 209 209 211 211 213 217 219 223 230 249 255 239 236 244 241 233 241 244 236 234 234 240 245 251 257 265 277 289 295 294
248 286 297 297 289 289 335 351 20 103 152 107 136 178 263 274 145 193 223 218 223 109 127 143 148 157 172 181 187 190 192 191 189 190 192 195 196 198 201 201 200 201 204 204 205 207 203 200 202 204 206 208 210 211 210 208 208 210 213 215 216 215 215 212 209 210 213 215 216 218 219 221 229 235 238 241 247 253 249 248 256 260 249 246 251 255 256 261 265 267 274 276 281 292 301 306 301
303 309 296 279 278 296 9 30 345 55 109 141 161 188 289 308 338 244 237 185 140 122 136 159 160 170 180 182 193 195 198 200 194 190 189 194 198 201 203 202 202 203 205 206 208 212 209 204 205 207 209 210 212 215 216 214 212 214 216 217 218 217 215 210 210 210 213 218 220 224 225 228 237 247 250 251 253 255 254 255 264 270 269 265 266 273 277 283 289 290 293 295 298 302 308 310 305
309 307 306 292 295 302 291 89 312 317 133 148 138 134 310 338 310 237 233 157 139 137 152 175 177 181 184 185 192 197 206 208 200 193 191 196 200 202 203 204 204 205 206 207 210 213 213 211 209 210 212 213 215 219 220 218 218 218 219 219 219 219 215 211 212 211 211 215 219 223 228 231 237 248 253 255 258 258 258 262 270 276 281 283 280 285 289 293 298 298 298 297 299 303 307 309 307
291 291 304 304 349 320 262 177 266 240 181 167 128 92 300 259 234 249 222 143 130 139 164 181 191 191 187 189 191 201 211 210 205 205 205 204 203 203 205 207 206 207 209 210 212 213 215 215 213 213 215 216 218 221 223 223 223 222 222 222 222 221 217 218 219 217 217 217 220 223 228 234 239 246 251 255 261 263 266 266 268 274 285 290 286 287 289 293 296 298 298 296 299 302 303 307 307
293 287 219 299 5 320 268 154 121 136 181 170 143 214 262 238 239 248 149 145 125 142 181 187 196 200 193 193 195 207 211 209 210 214 214 211 209 208 209 210 209 210 212 211 213 214 215 216 216 215 216 219 221 223 225 225 226 226 226 225 224 224 222 224 225 226 226 226 226 228 231 236 239 242 246 252 259 264 267 267 268 269 277 284 284 284 286 293 297 297 297 294 294 296 301 307 306
332 295 238 40 120 267 291 333 138 158 211 127 137 219 256 249 247 231 174 167 149 169 196 195 201 205 202 202 200 211 214 213 218 219 219 218 215 214 213 213 212 213 213 213 214 215 215 216 217 217 218 221 223 224 227 227 228 229 229 229 228 227 227 228 229 229 231 231 232 234 237 239 239 241 244 249 256 262 267 270 272 271 272 275 277 282 286 291 294 295 294 291 293 298 303 307 305
348 260 291 346 159 258 304 298 163 170 256 70 139 215 267 263 260 251 189 183 180 188 197 201 205 207 206 209 207 213 220 221 226 228 226 224 221 220 218 217 215 214 215 216 216 215 216 216 217 219 220 221 223 225 227 228 229 230 231 232 232 231 231 231 232 232 234 234 235 238 244 244 242 244 245 248 255 261 265 268 273 275 272 271 273 275 278 282 287 291 291 291 294 295 294 298 304
346 203 253 280 163 243 307 296 234 178 86 14 191 220 259 263 282 310 204 184 196 203 207 207 207 213 209 209 212 213 222 225 231 232 230 228 226 224 223 221 219 218 218 218 218 216 216 217 218 219 221 222 224 225 227 228 229 231 233 234 234 235 234 234 234 234 235 236 236 240 246 248 246 249 251 252 258 261 263 265 270 276 274 271 271 270 270 275 282 284 285 285 283 281 281 288 300
286 239 222 238 182 194 263 279 280 98 98 208 227 237 245 259 295 334 268 183 197 211 216 216 211 218 215 212 218 216 220 224 228 228 227 227 227 226 225 225 223 221 221 221 221 220 219 219 219 220 222 223 225 225 226 228 230 231 233 235 236 236 236 236 236 234 235 236 238 241 248 250 247 251 254 252 257 261 261 264 269 275 278 279 279 279 278 275 275 274 275 279 278 280 283 287 294
184 197 202 234 208 200 236 252 234 145 131 204 213 240 256 268 282 306 307 172 200 224 226 231 226 225 225 221 222 222 224 229 231 227 225 224 224 225 225 225 225 223 223 223 223 223 223 222 221 222 223 224 225 226 227 227 229 230 231 233 234 235 236 236 236 235 237 238 240 243 248 250 247 251 253 251 254 257 258 262 267 272 276 282 282 282 284 283 280 276 277 282 285 289 289 289 292
155 183 160 171 201 229 227 239 261 177 164 217 211 227 246 255 263 272 328 150 201 248 263 258 242 235 236 230 228 229 227 234 236 231 228 225 224 224 224 224 225 224 224 224 224 224 224 224 223 223 223 224 224 224 225 224 225 225 227 228 230 232 234 235 236 237 239 240 241 243 245 248 249 250 253 253 253 254 257 261 267 267 269 282 283 274 275 279 281 282 281 283 286 290 292 293 294
199 187 168 199 193 261 250 238 296 225 174 230 216 227 246 249 258 266 300 192 214 247 254 247 241 234 233 231 232 231 229 238 243 238 233 229 226 225 224 223 223 224 224 224 225 224 225 225 224 224 224 223 223 222 222 222 221 221 223 225 227 230 232 234 236 237 239 240 240 241 243 247 249 249 250 252 253 256 259 261 265 265 264 273 275 267 271 276 278 281 278 275 276 283 293 298 298
242 235 256 267 192 245 262 235 304 326 179 246 222 234 256 256 260 265 217 202 225 230 232 238 237 232 231 231 235 235 241 253 252 241 233 227 226 225 223 222 221 221 221 222 224 225 225 225 225 225 225 222 223 224 223 223 223 223 224 226 228 230 232 234 235 237 239 241 241 240 241 245 248 250 251 252 254 258 260 261 265 265 264 266 264 261 271 281 277 276 277 274 271 277 289 297 299
236 240 245 261 222 247 277 251 299 17 174 263 282 225 257 261 260 255 201 212 240 230 220 229 230 233 236 230 233 238 247 255 247 242 232 223 223 222 220 220 220 221 221 221 223 224 224 224 225 226 225 224 224 224 224 225 226 227 229 231 233 233 235 237 238 240 242 243 244 243 243 245 248 250 252 254 256 259 262 265 268 269 265 266 268 267 269 277 273 272 282 281 275 278 285 291 294
228 227 219 245 229 192 277 268 271 50 106 214 159 230 266 269 277 272 228 221 248 243 223 233 228 228 236 233 234 234 236 242 241 241 234 223 221 219 218 219 219 219 220 221 221 222 223 223 224 224 224 225 225 225 226 226 227 228 230 233 235 236 237 239 240 242 243 244 246 247 247 246 247 249 250 252 254 256 259 261 261 261 260 266 274 273 266 271 275 277 283 281 275 275 278 283 288
230 214 204 224 221 206 230 269 289 22 4 87 105 329 292 259 267 270 247 223 251 252 233 247 246 235 241 254 252 236 232 235 235 238 232 221 219 217 218 218 218 218 218 220 220 220 222 223 224 224 223 224 225 226 226 225 225 225 225 226 229 232 234 236 237 239 241 243 245 248 249 246 247 252 253 252 255 255 252 252 255 259 263 265 270 269 263 267 283 284 276 272 273 273 275 280 285
244 226 207 216 226 218 211 208 83 77 295 298 123 278 284 285 265 253 259 290 264 251 227 242 249 245 239 246 247 237 234 234 233 238 233 222 222 222 222 219 217 218 219 221 221 221 222 224 225 224 224 224 225 226 226 224 222 221 220 218 219 222 227 230 233 236 239 243 246 246 249 248 247 252 256 256 256 254 251 252 258 263 266 264 260 262 264 275 289 285 274 272 280 283 284 286 287
244 229 203 213 222 201 165 171 145 157 237 289 102 190 258 312 291 250 269 313 276 269 255 247 247 249 238 234 242 237 233 235 233 239 233 225 225 223 223 221 218 220 223 222 221 222 223 224 225 225 225 225 226 226 225 223 221 220 220 219 220 221 225 231 234 238 243 248 251 249 249 250 248 250 254 255 254 255 255 255 256 258 260 259 259 266 276 283 285 283 276 275 292 304 302 301 299
239 228 178 188 198 194 183 177 189 211 221 322 24 142 232 283 265 259 311 310 284 282 267 257 246 244 240 236 241 236 231 229 227 234 231 224 224 220 221 222 221 223 225 223 221 222 223 224 225 226 227 227 227 226 225 223 221 220 220 220 222 224 228 233 237 242 247 251 253 251 250 249 248 250 251 251 251 252 254 252 251 255 266 273 277 285 287 276 272 276 276 275 302 320 332 337 326
243 208 141 154 171 182 179 172 191 267 190 279 303 134 203 266 271 301 344 265 272 273 257 252 242 238 238 239 240 237 235 229 222 228 230 226 226 224 224 223 224 225 225 223 223 224 224 224 225 226 227 227 227 227 225 225 224 222 221 221 223 226 230 234 237 241 244 246 248 247 247 245 246 248 246 242 239 238 245 248 243 246 267 273 269 270 267 250 232 238 279 312 328 331 340 340 339
230 143 101 81 75 75 104 151 144 55 211 238 242 187 206 265 275 299 333 246 252 257 253 247 244 244 247 249 248 243 240 232 226 227 228 230 231 231 230 228 228 227 225 225 225 224 223 223 223 224 226 227 227 227 226 226 225 224 223 223 223 225 227 230 232 235 237 240 241 239 238 235 236 235 229 222 217 220 230 232 229 235 247 251 244 243 245 250 269 275 282 293 304 311 310 307 317
142 116 88 66 56 54 55 71 95 105 252 247 241 219 199 261 274 238 218 226 219 226 250 257 261 271 262 255 255 247 238 231 228 231 235 236 238 237 233 229 229 227 225 224 224 223 223 223 222 223 225 226 226 226 226 226 226 225 224 225 225 224 225 225 225 227 229 232 231 227 222 218 214 211 208 206 207 215 219 218 225 236 238 247 260 255 252 262 272 277 281 283 288 294 291 285 287
133 118 122 106 35 29 36 4 55 189 247 259 255 226 174 230 259 241 241 260 233 213 234 253 263 277 267 259 262 252 243 240 234 235 238 236 232 226 222 223 223 221 221 221 221 222 222 222 222 223 224 224 225 226 226 226 226 226 226 226 226 226 225 224 223 224 225 225 222 214 206 201 198 199 205 210 215 218 219 222 233 242 247 254 257 253 252 258 261 263 265 269 274 278 276 275 276
159 141 147 151 175 123 198 257 232 222 247 270 267 200 202 235 251 261 268 273 257 228 226 242 254 267 271 275 280 271 253 245 238 229 221 213 207 205 207 213 215 215 218 220 220 220 221 221 222 223 224 224 224 225 225 225 226 226 226 225 226 226 226 226 226 225 224 222 215 204 198 199 202 206 211 213 217 216 217 229 239 243 244 241 238 240 243 245 247 250 255 259 261 263 265 268 268
178 164 164 170 159 161 202 229 294 259 257 280 278 228 253 272 262 251 250 256 256 231 227 240 245 255 266 280 294 293 272 243 226 219 209 204 204 200 200 206 208 212 216 219 220 220 221 222 222 224 226 226 225 225 225 225 225 225 226 225 226 225 225 225 225 225 223 218 210 204 203 206 208 210 210 210 211 212 215 226 232 229 221 213 214 215 198 183 171 163 149 133 120 105 96 94 90
198 187 159 168 165 171 200 202 202 237 260 285 279 228 202 203 249 245 238 259 276 251 246 257 256 256 261 279 288 283 272 254 227 222 224 225 220 211 207 207 208 212 215 216 218 220 221 222 223 225 227 226 225 225 224 224 224 224 224 224 224 224 224 223 223 224 222 214 206 204 204 207 209 207 208 208 208 211 214 216 216 211 201 193 182 131 118 113 110 109 106 102 100 97 95 92 88
215 163 132 189 185 152 149 171 176 177 238 269 241 232 216 205 271 277 258 279 285 264 264 274 270 272 273 271 268 260 260 256 240 234 239 244 234 222 219 218 220 221 221 221 220 220 221 222 223 225 227 227 226 224 224 223 223 223 222 222 222 221 220 219 218 217 214 208 203 202 203 205 207 206 207 207 206 206 207 206 205 202 194 186 164 127 113 111 110 109 107 104 101 97 94 90 86
167 125 189 225 161 117 121 190 110 92 212 256 201 244 286 314 289 293 312 301 281 264 265 265 268 289 292 263 251 246 249 245 242 236 234 249 241 230 229 227 230 232 231 232 229 227 226 224 224 224 224 225 224 223 222 221 220 219 218 218 217 217 216 214 213 208 202 199 198 200 202 202 203 206 205 202 198 197 201 204 202 190 175 162 144 131 124 119 116 112 109 106 101 97 94 90 85
138 176 202 197 79 98 119 173 43 74 222 267 342 226 275 320 263 307 333 296 272 264 260 264 276 285 269 256 244 238 243 247 258 254 249 259 243 227 226 224 230 234 234 238 238 236 234 229 227 225 222 220 219 218 217 216 216 214 212 212 211 211 211 209 206 201 195 193 194 198 202 202 201 201 199 196 197 200 201 197 184 162 146 140 134 130 126 121 119 115 110 107 103 100 97 92 84
156 193 188 150 172 210 144 168 179 169 222 276 313 264 259 206 220 298 304 265 259 267 267 258 261 255 246 251 249 243 247 255 261 256 255 257 235 218 214 216 224 226 230 236 236 237 236 232 229 226 223 220 214 211 210 209 208 207 205 204 203 203 202 199 196 193 192 193 196 198 200 200 198 195 196 197 199 195 183 170 158 145 137 134 132 128 126 124 123 119 115 113 109 106 101 92 80
51 139 190 157 171 187 178 166 163 169 212 253 295 301 265 223 215 232 249 249 247 257 267 252 247 249 247 247 244 238 235 234 234 233 238 241 226 213 206 213 222 225 231 234 233 232 229 226 222 219 216 210 205 202 200 198 197 197 195 193 192 192 191 190 189 189 191 193 197 198 197 195 193 193 195 194 186 174 162 153 147 141 137 135 132 130 128 128 126 122 119 116 111 109 100 85 68
127 155 186 205 71 134 165 158 126 141 176 202 250 279 261 245 216 204 228 247 243 233 245 253 253 255 252 245 240 239 233 232 229 218 218 220 214 205 199 207 214 218 225 226 227 228 219 215 212 208 204 198 194 193 191 190 189 188 188 185 184 184 183 184 185 187 191 192 195 195 192 191 191 190 187 178 167 158 152 147 143 140 137 135 134 132 131 130 129 124 119 115 108 101 85 67 52
171 183 189 187 150 113 164 224 201 118 164 173 185 253 262 250 213 202 221 239 241 223 222 252 263 258 255 251 241 236 232 236 231 216 211 207 203 198 195 200 202 208 217 215 217 218 210 206 201 197 195 191 188 185 184 185 182 181 183 181 180 180 180 182 184 187 192 192 192 191 190 190 186 178 171 163 156 151 148 145 142 140 139 138 137 136 134 133 131 124 117 110 96 79 59 44 34